DRK203 VIDP-VQPR

Flight info

Callsign DRK203
Flight time 1h 43m
Altitude 39000
Route ALI6H ALI DCT KTM B345 TUMLI G348 SUBSU
Aircraft A20N/M-SDE2E3FGHIRWXY/LB1

Departure

Time 2025-09-06 06:11
Airport Indira Gandhi International Airport (VIDP)

Arrival

Time 2025-09-06 07:54
Airport Paro International Airport (VQPR)
Time Latitude Longitude Altitude Speed Heading
2025-09-06 05:51 28.55952 77.08219 783 ft 0 kts 59°
2025-09-06 05:56 28.55944 77.08203 783 ft 2 kts 59°
2025-09-06 05:56 28.55929 77.08174 783 ft 2 kts 59°
2025-09-06 05:56 28.55921 77.08160 783 ft 2 kts 59°
2025-09-06 05:57 28.55907 77.08137 783 ft 2 kts 27°
2025-09-06 05:57 28.55885 77.08136 783 ft 1 kts 325°
2025-09-06 05:58 28.55880 77.08141 783 ft 0 kts 326°
2025-09-06 05:59 28.55996 77.07880 783 ft 26 kts 207°
2025-09-06 06:00 28.55604 77.07761 783 ft 29 kts 194°
2025-09-06 06:00 28.55408 77.07704 783 ft 28 kts 195°
2025-09-06 06:00 28.55087 77.07561 783 ft 21 kts 267°
2025-09-06 06:01 28.55168 77.07191 783 ft 28 kts 284°
2025-09-06 06:01 28.55119 77.06860 783 ft 24 kts 192°
2025-09-06 06:02 28.54796 77.06776 783 ft 0 kts 193°
2025-09-06 06:07 28.54664 77.06799 783 ft 21 kts 113°
2025-09-06 06:07 28.54629 77.06966 783 ft 0 kts 102°
2025-09-06 06:07 28.54628 77.06969 783 ft 5 kts 102°
2025-09-06 06:08 28.54598 77.07121 783 ft 0 kts 103°
2025-09-06 06:08 28.54543 77.07378 783 ft 14 kts 104°
2025-09-06 06:09 28.54542 77.07383 783 ft 0 kts 104°
2025-09-06 06:09 28.54540 77.07391 783 ft 3 kts 104°
2025-09-06 06:10 28.54036 77.09720 968 ft 166 kts 103°
2025-09-06 06:11 28.53404 77.12212 2226 ft 165 kts 123°
2025-09-06 06:11 28.52467 77.12895 2793 ft 171 kts 166°
2025-09-06 06:12 28.48316 77.13253 3891 ft 232 kts 171°
2025-09-06 06:12 28.46637 77.13397 4256 ft 251 kts 171°
2025-09-06 06:12 28.43060 77.13731 4884 ft 264 kts 171°
2025-09-06 06:13 28.39363 77.14103 5926 ft 266 kts 171°
2025-09-06 06:13 28.35641 77.14512 7130 ft 274 kts 169°
2025-09-06 06:14 28.29962 77.15057 9453 ft 285 kts 176°
2025-09-06 06:15 28.25926 77.14061 10554 ft 312 kts 195°
2025-09-06 06:15 28.23830 77.13208 10882 ft 329 kts 196°
2025-09-06 06:15 28.19368 77.11372 11894 ft 347 kts 196°
2025-09-06 06:16 28.14758 77.11324 13129 ft 340 kts 152°
2025-09-06 06:16 28.11525 77.15078 14334 ft 343 kts 114°
2025-09-06 06:17 28.10092 77.20290 15414 ft 352 kts 107°
2025-09-06 06:17 28.08667 77.25648 16495 ft 359 kts 108°
2025-09-06 06:18 28.01993 77.49880 20572 ft 386 kts 108°
2025-09-06 06:19 27.95439 77.73406 23870 ft 407 kts 109°
2025-09-06 06:19 27.93198 77.81406 24858 ft 414 kts 109°
2025-09-06 06:21 27.87886 78.00290 27003 ft 427 kts 109°
2025-09-06 06:23 27.82930 78.26797 29304 ft 446 kts 91°
2025-09-06 06:25 27.83025 78.55190 31113 ft 458 kts 91°
2025-09-06 06:27 27.83038 78.83867 33179 ft 456 kts 91°
2025-09-06 06:29 27.82992 79.12164 35652 ft 448 kts 90°
2025-09-06 06:31 27.82888 79.40180 37430 ft 447 kts 90°
2025-09-06 06:32 27.82753 79.64758 38429 ft 451 kts 90°
2025-09-06 06:35 27.82509 79.96645 38784 ft 451 kts 90°
2025-09-06 06:36 27.82273 80.21366 38798 ft 452 kts 90°
2025-09-06 06:39 27.81899 80.53207 38795 ft 452 kts 90°
2025-09-06 06:40 27.81561 80.77911 38787 ft 451 kts 90°
2025-09-06 06:43 27.81058 81.09791 38775 ft 451 kts 90°
2025-09-06 06:44 27.80620 81.34538 38782 ft 452 kts 90°
2025-09-06 06:47 27.79986 81.66466 38798 ft 453 kts 91°
2025-09-06 06:48 27.79444 81.91248 38800 ft 451 kts 91°
2025-09-06 06:50 27.78772 82.19534 38846 ft 452 kts 91°
2025-09-06 06:52 27.78041 82.47762 38870 ft 449 kts 91°
2025-09-06 06:54 27.77256 82.75970 38920 ft 450 kts 91°
2025-09-06 06:56 27.76410 83.04218 38865 ft 449 kts 91°
2025-09-06 06:58 27.75513 83.32368 38880 ft 449 kts 91°
2025-09-06 07:00 27.74564 83.60310 38927 ft 447 kts 91°
2025-09-06 07:03 27.73426 83.91802 38987 ft 446 kts 92°
2025-09-06 07:04 27.72495 84.16252 38944 ft 446 kts 92°
2025-09-06 07:07 27.71237 84.47577 38924 ft 446 kts 92°
2025-09-06 07:09 27.70060 84.75460 39025 ft 444 kts 93°
2025-09-06 07:11 27.68827 85.03258 39045 ft 445 kts 93°
2025-09-06 07:12 27.67703 85.27621 39068 ft 445 kts 93°
2025-09-06 07:15 27.62872 85.58441 39138 ft 445 kts 102°
2025-09-06 07:16 27.58320 85.82195 39310 ft 444 kts 102°
2025-09-06 07:19 27.52414 86.12682 39402 ft 442 kts 103°
2025-09-06 07:20 27.47819 86.36370 39524 ft 442 kts 102°
2025-09-06 07:23 27.41974 86.66723 39639 ft 443 kts 103°
2025-09-06 07:25 27.36725 86.93671 39442 ft 440 kts 103°
2025-09-06 07:27 27.30446 87.20202 39340 ft 440 kts 113°
2025-09-06 07:28 27.19797 87.40944 39309 ft 439 kts 121°
2025-09-06 07:30 27.06927 87.64198 39184 ft 438 kts 121°
2025-09-06 07:32 26.94150 87.87161 36202 ft 431 kts 121°
2025-09-06 07:34 26.81162 88.10399 29321 ft 440 kts 121°
2025-09-06 07:37 26.71225 88.36686 24881 ft 415 kts 68°
2025-09-06 07:37 26.72601 88.39544 24895 ft 416 kts 59°
2025-09-06 07:37 26.75633 88.45036 24866 ft 414 kts 59°
2025-09-06 07:38 26.77142 88.47768 24546 ft 409 kts 59°
2025-09-06 07:38 26.81569 88.55840 22671 ft 404 kts 59°
2025-09-06 07:39 26.84469 88.61146 21508 ft 400 kts 59°
2025-09-06 07:39 26.87341 88.66413 20445 ft 394 kts 59°
2025-09-06 07:40 26.90179 88.71626 19405 ft 389 kts 59°
2025-09-06 07:40 26.92901 88.76629 18552 ft 383 kts 58°
2025-09-06 07:41 26.95670 88.81724 18498 ft 385 kts 58°
2025-09-06 07:42 26.99838 88.89429 18520 ft 386 kts 59°
2025-09-06 07:42 27.02599 88.94608 18569 ft 388 kts 59°
2025-09-06 07:43 27.05353 88.99759 18732 ft 388 kts 59°
2025-09-06 07:43 27.08121 89.04938 18748 ft 388 kts 59°
2025-09-06 07:44 27.10908 89.10149 18718 ft 387 kts 59°
2025-09-06 07:44 27.13674 89.15332 18942 ft 388 kts 58°
2025-09-06 07:45 27.17476 89.19483 18923 ft 382 kts 32°
2025-09-06 07:45 27.21829 89.22288 18369 ft 343 kts 24°
2025-09-06 07:45 27.24018 89.23207 17932 ft 324 kts 17°
2025-09-06 07:46 27.30082 89.25234 16819 ft 284 kts 12°
2025-09-06 07:46 27.31964 89.25635 16579 ft 269 kts
2025-09-06 07:47 27.36815 89.26309 15958 ft 203 kts
2025-09-06 07:48 27.39477 89.26118 15129 ft 188 kts 334°
2025-09-06 07:48 27.41965 89.25579 14208 ft 185 kts
2025-09-06 07:49 27.44438 89.26173 13608 ft 180 kts 15°
2025-09-06 07:49 27.46706 89.27419 12710 ft 184 kts 34°
2025-09-06 07:49 27.47677 89.28337 12282 ft 184 kts 42°
2025-09-06 07:50 27.48789 89.32087 10988 ft 176 kts 108°
2025-09-06 07:51 27.47560 89.34385 10119 ft 174 kts 140°
2025-09-06 07:51 27.45588 89.35941 9249 ft 172 kts 147°
2025-09-06 07:52 27.44355 89.38133 8496 ft 188 kts 100°
2025-09-06 07:52 27.43724 89.41049 8128 ft 189 kts 125°
2025-09-06 07:52 27.42684 89.41717 7843 ft 169 kts 176°
2025-09-06 07:53 27.40549 89.42326 7344 ft 136 kts 150°
2025-09-06 07:53 27.39628 89.42918 7309 ft 45 kts 151°
2025-09-06 07:54 27.39553 89.42853 7308 ft 15 kts 331°
2025-09-06 07:55 27.39747 89.42731 7315 ft 25 kts 330°
2025-09-06 07:55 27.40031 89.42551 7323 ft 20 kts 330°
2025-09-06 07:56 27.40239 89.42419 7331 ft 14 kts 330°
2025-09-06 07:56 27.40323 89.42365 7336 ft 12 kts 330°
2025-09-06 07:56 27.40518 89.42239 7345 ft 10 kts 330°
2025-09-06 07:57 27.40536 89.42175 7346 ft 4 kts 239°
2025-09-06 07:57 27.40533 89.42169 7346 ft 0 kts 240°